Skip Navigation Linkswww.weather.gov 
NOAA logo - Click to go to the NOAA homepage National Weather Service Forecast Office   NWS logo - Click to go to the NWS homepage    
Los Angeles, California
navigation bar decoration      
spacer
Printer Friendly  |   Go Back  |  Version: Current   1   2   3   4   5   6   7   8   9   10   |  Font:  A A A  |  
This version is NOT current and may no longer be valid!

HOURLY WEATHER ROUNDUP
 
 ASUS46 KSTO 051709
RWRCA

NORTHERN AND CENTRAL CA REGIONAL WEATHER ROUNDUP
NATIONAL WEATHER SERVICE SACRAMENTO CA
900 AM PST THU MAR 05 2015

NOTE: FAIR INDICATES FEW OR NO CLOUDS BELOW 12,000 FEET WITH NO
SIGNIFICANT WEATHER AND/OR OBSTRUCTIONS TO VISIBILITY.

CAZ001-003-051800-
NORTHWEST AREA

CITY SKY/WX TMP DP RH WIND PRES REMARKS
CRESCENT CITY SUNNY 53 42 66 E3 30.33R
ARCATA NOT AVBL
SHELTER COVE NOT AVBL
UKIAH SUNNY 45 38 76 CALM 30.36S
$$

CAZ006-505>513-051800-
BAY AREA

CITY SKY/WX TMP DP RH WIND PRES REMARKS
SANTA ROSA SUNNY 50 41 71 N3 30.33R
SAN RAFAEL N/A 46 MM MM MISG
NAPA SUNNY 52 42 69 CALM 30.35R
CONCORD SUNNY 52 39 61 CALM 30.36R
OAKLAND CITY N/A 53 MM MM MISG
OAKLAND SUNNY 56 41 57 SW3 30.34R
SAN FRAN CITY N/A 55 MM 57 MISG
SAN FRAN ARPT SUNNY 57 48 72 CALM 30.34R
LIVERMORE SUNNY 48 38 68 CALM 30.35R
HAYWARD SUNNY 55 39 54 W5 30.33R
REDWOOD CITY N/A MM MM MM MISG
MOFFETT ARPT SUNNY 54 41 61 CALM 30.35R
SAN JOSE ARPT SUNNY 55 39 54 CALM 30.34R
$$
CAZ034-037-514>518-051800-
CENTRAL COAST

CITY SKY/WX TMP DP RH WIND PRES REMARKS
WATSONVILLE SUNNY 58 45 62 E3 30.33R
SALINAS SUNNY 56 42 59 E14 30.32R
MONTEREY SUNNY 63 39 41 E5 30.31R
PT PIEDRAS BLS NOT AVBL
SAN LUIS OBISP SUNNY 56 44 64 CALM 30.29R
SANTA MARIA SUNNY 59 41 51 E6 30.29R
$$
CAZ015-016-051800-
NORTHERN SACRAMENTO VALLEY

CITY SKY/WX TMP DP RH WIND PRES REMARKS
REDDING SUNNY 51 35 54 CALM 30.36R
RED BLUFF SUNNY 50 34 54 NW8 30.38R
OROVILLE SUNNY 52 41 66 W3 30.37R
$$
CAZ016>018-051800-
SOUTHERN SACRAMENTO VALLEY

CITY SKY/WX TMP DP RH WIND PRES REMARKS
BEALE AFB SUNNY 52 42 67 NW7 30.34R
MARYSVILLE SUNNY 53 41 63 N3 30.36R
SAC INTL ARPT SUNNY 50 42 74 N7 30.36R
MATHER AIRPORT SUNNY 52 41 66 CALM 30.36R
DOWNTOWN SAC N/A 53 MM MM MISG
SAC EXEC ARPT SUNNY 54 44 69 NW6 30.36R
VACAVILLE SUNNY 55 39 54 N5 30.37R
TRAVIS AFB SUNNY 52 41 67 N12 30.34R
$$
CAZ019>021-051800-
SAN JOAQUIN VALLEY

CITY SKY/WX TMP DP RH WIND PRES REMARKS
STOCKTON SUNNY 50 38 63 CALM 30.35R
MODESTO SUNNY 55 40 56 VRB3 30.35R
MERCED SUNNY 51 41 68 CALM 30.34R
LEMOORE SUNNY 55 41 59 N6 30.36R
FRESNO SUNNY 54 42 64 SE3 30.35R
HANFORD SUNNY 51 45 79 CALM 30.36R HAZE
PORTERVILLE SUNNY 57 41 54 S3 30.35R
BAKERSFIELD SUNNY 55 40 56 S3 30.34R
$$
CAZ011-012-071-051800-
NORTHERN MOUNTAINS

CITY SKY/WX TMP DP RH WIND PRES REMARKS
YREKA SUNNY 38 28 67 CALM 30.39R
MOUNT SHASTA SUNNY 43 25 49 CALM 30.35R
ALTURAS SUNNY 35 21 56 CALM 30.38R
$$
CAZ011-012-071-051800-
SIERRA NEVADA MTNS

CITY SKY/WX TMP DP RH WIND PRES REMARKS
BLUE CANYON SUNNY 47 15 27 SE3 30.37R
TRUCKEE SUNNY 27 19 74 CALM 30.41R
TAHOE VLY ARPT SUNNY 32 17 54 S3 30.39S
MAMMOTH LAKES NOT AVBL
$$



Webmaster
US Dept of Commerce
National Oceanic and Atmospheric Administration
National Weather Service
Los Angeles/Oxnard Weather Forecast Office
520 North Elevar Street
Oxnard, CA 93030

Tel: (805) 988-6610

Disclaimer
Information Quality
Credits
Glossary
Organization
Privacy Policy
Freedom of Information Act
About Us
Career Opportunities